Flag for Canada Weather past 2 weeks in Kuujjuaq, Quebec, Canada

Now
30 °F

Overcast.


Feels Like: 22 °F
Forecast: 27 / 43 °F
Wind: 9 mph from North

Location: Kuujjuaq

Current Time: May 22, 2015 at 12:17:04 PM

Latest Report: May 22, 2015 at 11:00 AM


Visibility: 15 mi

Pressure: 29.93 "Hg

Humidity: 64%

Dew point: 19 °F

Location of KuujjuaqLocation

Historic Weather in Kuujjuaq — Graph

°F

Kuujjuaq temperature yesterday

Maximum temperature yesterday: 41 °F (at 12:00 PM)
Minimum temperature yesterday: 30 °F (at 9:00 PM)
Average temperature yesterday: 36 °F

Past Weeks' High & Low Weather Summary

 TemperatureHumidityPressure
High68 °F (May 16, 4:00 PM)100% (May 14, 12:00 AM)30.36 "Hg (May 14, 12:00 AM)
Low23 °F (May 11, 1:00 AM)19% (May 16, 5:00 PM)29.52 "Hg (May 14, 8:00 AM)
Average35 °F61%29.91 "Hg
* Reported May 7 11:00 AM — May 22 11:00 AM, Kuujjuaq, Weather by CustomWeather, © 2015

Note: Actual official high and low records may vary slightly from our data, if they occured in-between our weather recording intervals... More about our weather records

Advertising

Kuujjuaq weather history for previous 24 hours

 ConditionsComfort  
Time TempWeatherWind HumidityBarometerVisibility
11:00 AM
Fri, May 22
30 °FOvercast.9 mph64%29.93 "Hg15 mi
10:00 AM30 °FOvercast.7 mph55%29.93 "Hg15 mi
9:00 AM30 °FOvercast.7 mph59%29.92 "Hg15 mi
8:00 AM28 °FLight snow. Overcast.6 mph64%29.91 "Hg15 mi
7:00 AM28 °FMostly cloudy.8 mph74%29.90 "Hg15 mi
6:00 AM28 °FMore clouds than sun.9 mph74%29.88 "Hg15 mi
5:00 AM27 °FMore clouds than sun.6 mph80%29.87 "Hg15 mi
4:00 AM27 °FOvercast.12 mph80%29.86 "Hg15 mi
3:00 AM27 °FPassing clouds.8 mph86%29.84 "Hg15 mi
2:00 AM27 °FPartly cloudy.9 mph86%29.83 "Hg15 mi
1:00 AM27 °FPartly cloudy.9 mph86%29.83 "Hg15 mi
12:00 AM28 °FMostly cloudy.9 mph80%29.82 "Hg15 mi
11:00 PM
Thu, May 21
30 °FMostly cloudy.9 mph75%29.81 "Hg15 mi
10:00 PM30 °FMore clouds than sun.10 mph80%29.80 "Hg15 mi
9:00 PM30 °FOvercast.10 mph80%29.80 "Hg15 mi
8:00 PM32 °FMostly cloudy.12 mph75%29.78 "Hg15 mi
7:00 PM34 °FPartly sunny.16 mph70%29.77 "Hg15 mi
6:00 PM34 °FPartly sunny.14 mph65%29.76 "Hg15 mi
5:00 PM36 °FBroken clouds.13 mph56%29.75 "Hg15 mi
4:00 PM37 °FPartly sunny.10 mph56%29.74 "Hg15 mi
3:00 PM37 °FPartly sunny.12 mph56%29.73 "Hg15 mi
2:00 PM37 °FPartly sunny.14 mph56%29.72 "Hg15 mi
1:00 PM41 °FBroken clouds.17 mph49%29.70 "Hg15 mi
12:00 PM41 °FPartly sunny.13 mph49%29.69 "Hg15 mi
Weather by CustomWeather, © 2015

See weather overviewHow to use our weather pages